Regional Weather Roundup
Issued by NWS Green Bay, WI

Home | Current Version | Previous Version | Text Only | Print | Product List | Glossary On
Versions: 1 2 3 4 5 6 7 8 9 10 11 12 13 14 15 16 17 18 19 20 21 22 23 24 25 26 27 28 29 30 31 32 33 34 35 36 37 38 39 40 41 42 43 44 45 46 47 48 49 50
000
ASUS43 KGRB 061510
RWRGRB

NORTH-CENTRAL AND NORTHEAST WISCONSIN REGIONAL WEATHER ROUNDUP
NATIONAL WEATHER SERVICE GREEN BAY WI
900 AM CST FRI MAR 06 2015

WIZ005-009-010>012-018-019-061600-
NORTH CENTRAL WISCONSIN

CITY           SKY/WX    TMP DP  RH WIND       PRES   REMARKS
IRONWOOD       CLOUDY    14   3  62 SW13      29.95S WCI   0
MANITOWISH WTR PTSUNNY   11   1  62 SW16G22   29.99S WCI  -6
ARBOR VITAE    MOSUNNY   10   1  67 S10       29.99F WCI  -4
EAGLE RIVER    SUNNY     10  -1  59 SW13G21   30.00F WCI  -5
LAND O LAKES   CLOUDY    12   0  58 SW8G17    29.98F WCI   1
RHINELANDER    CLOUDY     9  -2  61 SW18G25   30.02F WCI -10
PHILLIPS       CLOUDY    11   0  62 SW13G20   30.02F WCI  -4
ANTIGO         SUNNY      7  -1  67 SW13      30.08F WCI  -9
TOMAHAWK       CLOUDY     8  -1  66 CALM      30.05F
MERRILL        CLOUDY     9  -1  63 SW7       30.09F WCI  -2
$$

WIZ013-073-061600-
NORTHEAST WISCONSIN

CITY           SKY/WX    TMP DP  RH WIND       PRES   REMARKS
IRON MOUNTAIN  PTSUNNY    9  -2  61 S8        30.05F WCI  -3
MARINETTE      CLOUDY     9   0  66 SW12      30.18F WCI  -6
OCONTO         CLOUDY    11  -1  60 SW8       30.21F WCI  -1
$$

WIZ017-030-035>037-045-061600-
CENTRAL WISCONSIN

CITY           SKY/WX    TMP DP  RH WIND       PRES   REMARKS
MEDFORD        CLOUDY     9   0  66 SW13      30.07F WCI  -7
WAUSAU         MOSUNNY    8  -1  66 S8        30.11F WCI  -4
MOSINEE        SUNNY      9  18 100 S14       30.14S WCI  -8
MARSHFIELD     MOSUNNY   11   0  61 SW15      30.11F WCI  -5
WISC RAPIDS    SUNNY     12   0  58 SW13G23   30.18F WCI  -3
STEVENS POINT  SUNNY     10  -1  62 S13       30.16S WCI  -6
WAUPACA        SUNNY     13   1  58 S10       30.21F WCI   0
SHAWANO        SUNNY     11   0  59 SW12G20   30.20F WCI  -3
CLINTONVILLE   MOSUNNY   10   0  61 SW10      30.20F WCI  -3
$$

WIZ038-039-048-051-061600-
FOX VALLEY

CITY           SKY/WX    TMP DP  RH WIND       PRES   REMARKS
NWS GREEN BAY  CLOUDY     9   0  67 SW20      30.23F WCI -10
APPLETON       PTSUNNY    9   0  66 S13       30.22F WCI  -7
OSHKOSH        PTSUNNY   11   1  64 S15G24    30.23F WCI  -5
FOND DU LAC    PTSUNNY   13   1  59 S17G24    30.24F WCI  -4
$$

WIZ022-050-052-061600-
EAST CENTRAL WISCONSIN

CITY           SKY/WX    TMP DP  RH WIND       PRES   REMARKS
STURGEON BAY   CLOUDY    12   0  57 SW16G22   30.21F WCI  -4
MANITOWOC      PTSUNNY   15   3  59 SW16      30.25F WCI  -1
SHEBOYGAN      MOSUNNY   13   2  61 SW15      30.27F WCI  -3
$$

LMZ563-521-522-541>543-061600-
LAKESHORE

STATION/POSITION TIME  TEMP    WIND        PRES    VSBY  WAVE
                       AIR SEA DIR/SP/G                  HT/PER
                 (UTC) (F)     (DEG/KT/KT) (MB)    (MI)  (FT/S)
SHEBOYGAN LKSHOR 1500   13     210/ 15/ 16 1027.2F
KEWAUNEE LKSHORE 1500          210/ 13/ 20 1023.2F
TWO RIVERS CG    1400   10                   N/A       6   1
NORTHPORT PIER   1500   15     210/ 12/ 23 1022.4F
CHAMBERS ISLAND  1500    6     180/  9/ 20 1022.4F
MENOMINEE LKSHOR 1500    9     200/  9     1023.0F
$$



USA.gov is the U.S. government's official web portal to all federal, state and local government web resources and services.